This is the latest recevied weather packets stored in our database for station/object KB0RPJ. If no packets are shown the sender has not sent any weather packets the latest 10 day(s).
| Time | Temp. | Humidity | Pressure | Rain* | Wind** | Luminosity | Snow |
|---|---|---|---|---|---|---|---|
| 1778075105 | 8.89° C | 54% | 1017.7 hPa | 0 mm | - | 175 W/m² | - |
| 1778074805 | 8.33° C | 56% | 1017.6 hPa | 0 mm | - | 184 W/m² | - |
| 1778074505 | 8.33° C | 57% | 1017.6 hPa | 0 mm | - | 175 W/m² | - |
| 1778074205 | 8.33° C | 59% | 1017.5 hPa | 0 mm | - | 156 W/m² | - |
| 1778073920 | 8.33° C | 59% | 1017.4 hPa | 0 mm | - | 159 W/m² | - |
| 1778073605 | 7.78° C | 60% | 1017.4 hPa | 0 mm | - | 160 W/m² | - |
| 1778073306 | 7.78° C | 60% | 1017.3 hPa | 0 mm | - | 157 W/m² | - |
| 1778073006 | 7.78° C | 59% | 1017.3 hPa | 0 mm | - | 147 W/m² | - |
| 1778072706 | 7.78° C | 60% | 1017.2 hPa | 0 mm | - | 130 W/m² | - |
| 1778072405 | 7.78° C | 60% | 1017.2 hPa | 0 mm | - | 117 W/m² | - |
| 1778072105 | 7.78° C | 61% | 1017.1 hPa | 0 mm | - | 128 W/m² | - |
| 1778071807 | 7.78° C | 59% | 1017.1 hPa | 0 mm | - | 121 W/m² | - |
| 1778071504 | 7.78° C | 59% | 1016.9 hPa | 0 mm | - | 125 W/m² | - |
| 1778071205 | 7.78° C | 60% | 1016.9 hPa | 0 mm | - | 123 W/m² | - |
| 1778070905 | 7.78° C | 59% | 1016.9 hPa | 0 mm | - | 109 W/m² | - |
| 1778070605 | 7.78° C | 59% | 1016.7 hPa | 0 mm | - | 82 W/m² | - |
| 1778070305 | 7.78° C | 58% | 1016.6 hPa | 0 mm | - | 82 W/m² | - |
| 1778070004 | 7.78° C | 59% | 1016.7 hPa | 0 mm | - | 82 W/m² | - |
| 1778069704 | 7.78° C | 59% | 1016.5 hPa | 0 mm | - | 73 W/m² | - |
| 1778069406 | 7.78° C | 59% | 1016.5 hPa | 0 mm | - | 47 W/m² | - |
| 1778069104 | 7.78° C | 57% | 1016.6 hPa | 0 mm | - | 31 W/m² | - |
| 1778068805 | 7.78° C | 58% | 1016.6 hPa | 0 mm | - | 32 W/m² | - |
| 1778068505 | 7.78° C | 56% | 1016.5 hPa | 0 mm | - | 28 W/m² | - |
| 1778068205 | 7.78° C | 57% | 1016.5 hPa | 0 mm | - | 26 W/m² | - |
| 1778067905 | 7.78° C | 57% | 1016.3 hPa | 0 mm | - | 20 W/m² | - |
* Rain latest hour (hover to see other rain measurements)
** Current wind speed in m/s (hover to see current wind gust speed)